Location: Middelsbur
(53.6609°N, 7.5020°E)
Time: 00:07:27
(UTC+00:00)

Cosmos 1782 - Pass Details

Date: 06 July 2020
Orbit: 536 x 553 km, 82.5° (Epoch: 03 August)

Event Time Altitude Azimuth Distance (km) Brightness Sun altitude
Rises 23:44:19 0° 345° (NNW) 2,705 7.9 -13.8°
Reaches altitude 10° 23:46:31 10° 341° (NNW) 1,808 6.6 -13.7°
Maximum altitude 23:50:23 53° 264° (W) 665 3.1 -13.7°
Enters shadow 23:52:36 23° 196° (SSW) 1,171 3.9 -13.7°
